Header for Extended Forecast Station List Page

Search by: ID | Name | Date | Parm | Value | Avg | % Avg
Sort by: ID | Name | Date | Parm | Value | Avg | % Avg

Enter search or view all records.

Click on id for station plot
#IDNameDateParmValueAvg% Avg
0LYDM8KOOTENAI-LIBBY DAM04-14-2015INFLOW (KAF)4685573682
1LEOI1KOOTENAI-AT LEONIA04-14-2015DISCHARGE (KAF)4294522982
2BFEI1KOOTENAI-AT BONNERS FERRY04-14-2015STAGE (FT)MMM
3FCFM8NF FLATHEAD-NEAR COLUMBIA FALLS04-14-2015DISCHARGE (KAF)1190156876
4WGCM8MF FLATHEAD-NEAR WEST GLACIER04-14-2015DISCHARGE (KAF)1173152477
5HHWM8SF FLATHEAD-HUNGRY HORSE DAM04-14-2015INFLOW (KAF)1461185579
6CFMM8FLATHEAD-AT COLUMBIA FALLS04-14-2015DISCHARGE (KAF)3666404891
7DLGM8CLARK FORK-AT DEER LODGE04-14-2015DISCHARGE (KAF)377351
8DRMM8CLARK FORK-NR DRUMMOND04-14-2015DISCHARGE (KAF)149MM
9RCCM8ROCK CREEK-NEAR CLINTON04-14-2015DISCHARGE (KAF)20925283
10BONM8BLACKFOOT-NEAR BONNER04-14-2015DISCHARGE (KAF)49977364
11ABOM8CLARK FORK-ABOVE MISSOULA04-14-2015DISCHARGE (KAF)894136366
12BITM8BITTERROOT-NEAR MISSOULA04-14-2015DISCHARGE (KAF)888116976
13BELM8CLARK FORK-BELOW MISSOULA04-14-2015DISCHARGE (KAF)1782257469
14STRM8ST. REGIS-NEAR ST. REGIS04-14-2015DISCHARGE (KAF)10623146
15SRGM8CLARK FORK-AT ST REGIS04-14-2015DISCHARGE (KAF)2385343569
16KERM8FLATHEAD-KERR DAM04-14-2015INFLOW (KAF)4178504483
17NOXM8CLARK FORK-NOXON RAPIDS DAM04-14-2015INFLOW (KAF)6281853474
18CABI1CLARK FORK-CABINET GORGE DAM04-14-2015INFLOW (KAF)6930903977
19PRTI1PRIEST-NEAR PRIEST RIVER04-14-2015DISCHARGE (KAF)64372389
20ALFW1PEND OREILLE-ALBENI FALLS DAM04-14-2015INFLOW (KAF)77611048074
21HOPI1PEND OREILLE-PEND OREILLE LAKE NR HOPE04-14-2015LAKE ELEVATION (FT)MMM
22COEI1COEUR D ALENE-COEUR D ALENE LAKE04-14-2015INFLOW (KAF)922218342
23SPOW1SPOKANE-AT SPOKANE04-14-2015DISCHARGE (KAF)925MM
24LLKW1SPOKANE-AT LONGLAKE04-14-2015INFLOW (KAF)1103268641
25SATI1ST MARIES-NEAR SANTA04-14-2015DISCHARGE (KAF)4010837
26SJMI1ST JOE-AT ST MARIES04-14-2015STAGE (FT)MMM
27CIBW1COLUMBIA-AT INTL BOUNDARY04-14-2015DISCHARGE (KAF)26237MM
28LAUW1KETTLE-AT LAURIER04-14-2015DISCHARGE (KAF)1177166071
29GCDW1COLUMBIA-GRAND COULEE DAM04-14-2015INFLOW (KAF)285514154869
30CHJW1COLUMBIA-CHIEF JOSEPH DAM04-14-2015INFLOW (KAF)247503133979
31TONW1OKANOGAN-NEAR TONASKET04-14-2015DISCHARGE (KAF)1047140475
32PATW1METHOW-NEAR PATEROS04-14-2015DISCHARGE (KAF)63181677
33WELW1COLUMBIA-WELLS DAM04-14-2015INFLOW (KAF)264373392778
34CHDW1CHELAN-LAKE CHELAN DAM04-14-2015INFLOW (KAF)57197159
35RRHW1COLUMBIA-ROCKY REACH DAM04-14-2015INFLOW (KAF)271493446879
36ARDW1ENTIAT-NEAR ARDENVOIR04-14-2015DISCHARGE (KAF)12219363
37PESW1WENATCHEE-AT PESHASTIN04-14-2015DISCHARGE (KAF)614136545
38WANW1COLUMBIA-WANAPUM DAM04-14-2015INFLOW (KAF)277774133167
39PRWW1COLUMBIA-PRIEST RAPIDS DAM04-14-2015INFLOW (KAF)277764213966
40KEDW1YAKIMA-KEECHELUS LAKE04-14-2015INFLOW (KAF)2910029
41KADW1KACHESS-KACHESS DAM04-14-2015INFLOW (KAF)189319
42EASW1YAKIMA-AT EASTON04-14-2015DISCHARGE (KAF)749280
43CLUW1CLE ELUM-CLE ELUM LAKE04-14-2015INFLOW (KAF)9035725
44TNAW1TEANAWAY-BELOW FORKS04-14-2015DISCHARGE (KAF)169617
45UMTW1YAKIMA-AT UMTANUM04-14-2015DISCHARGE (KAF)55078970
46BUDW1BUMPING-BUMPING LAKE DAM04-14-2015INFLOW (KAF)5010846
47CLFW1NACHES-NEAR CLIFFDEL04-14-2015DISCHARGE (KAF)14833344
48RILW1TIETON-RIMROCK LAKE NEAR RIMROCK04-14-2015INFLOW (KAF)9918354
49NACW1NACHES-NEAR NACHES04-14-2015DISCHARGE (KAF)20946545
50PARW1YAKIMA-NEAR PARKER04-14-2015DISCHARGE (KAF)13440933
51KIOW1YAKIMA-AT KIONA04-14-2015DISCHARGE (KAF)37775950
52IPDI1HENRYS FORK-ISLAND PARK DAM04-14-2015INFLOW (KAF)13320664
53CHEI1FALL RIVER-NEAR CHESTER04-14-2015DISCHARGE (KAF)20830568
54ANTI1HENRYS FORK-AT ST. ANTHONY04-14-2015DISCHARGE (KAF)34360457
55TEAI1TETON-NEAR ST. ANTHONY04-14-2015DISCHARGE (KAF)30933891
56REXI1HENRYS FORK-AT REXBURG04-14-2015DISCHARGE (KAF)40769459
57JLKW4SNAKE-JACKSON LAKE AT DAM04-14-2015INFLOW (KAF)53975372
58JKSW4SNAKE-NEAR JACKSON04-14-2015DISCHARGE (KAF)1517158995
59ALPW4SNAKE-NEAR ALPINE04-14-2015DISCHARGE (KAF)1867205291
60PLDI1SF SNAKE-PALISADES DAM04-14-2015INFLOW (KAF)2524293886
61HEII1SNAKE-NEAR HEISE04-14-2015DISCHARGE (KAF)31363036103
62RIDI1WILLOW CREEK-RIRIE DAM04-14-2015INFLOW (KAF)153840
63SIFI1SNAKE-AB EAGLE ROCK NR IDAHO FALLS04-14-2015DISCHARGE (KAF)2105245186
64SHYI1SNAKE-NEAR SHELLEY04-14-2015DISCHARGE (KAF)1827224581
65SNAI1SNAKE-AT BLACKFOOT04-14-2015DISCHARGE (KAF)1244175971
66BFTI1SNAKE-NEAR BLACKFOOT04-14-2015DISCHARGE (KAF)1196165172
67PIHI1PORTNEUF-AT POCATELLO04-14-2015DISCHARGE (KAF)196729
68AFRI1SNAKE-AMERICAN FALLS RESERVOIR04-14-2015INFLOW (KAF)1666226973
69MILI1SNAKE-AT MILNER04-14-2015DISCHARGE (KAF)23229678
70HOTI1BRUNEAU-NEAR HOT SPRINGS04-14-2015DISCHARGE (KAF)3516322
71SWAI1SNAKE-BELOW SWAN FALLS04-14-2015DISCHARGE (KAF)1589222971
72HWRI1BIG LOST-AT HOWELL RANCH NEAR CHILLY04-14-2015DISCHARGE (KAF)6715843
73MACI1BIG LOST-MACKAY RESERVOIR NEAR MACKAY04-14-2015INFLOW (KAF)6115838
74HALI1BIG WOOD-AT HAILEY04-14-2015DISCHARGE (KAF)13922362
75MAGI1BIG WOOD-MAGIC DAM04-14-2015INFLOW (KAF)9620946
76LWRI1LITTLE WOOD-LITTLE WOOD DAM04-14-2015INFLOW (KAF)147020
77OWYO3OWYHEE-BELOW OWYHEE DAM04-14-2015INFLOW (KAF)3722716
78ARAI1SF BOISE-ANDERSON RANCH DAM04-14-2015INFLOW (KAF)24047251
79LUCI1BOISE-LUCKY PEAK DAM04-14-2015INFLOW (KAF)907MM
80BIGI1BOISE-AT GLENWOOD BRIDGE04-14-2015DISCHARGE (KAF)32644474
81PARI1BOISE-NEAR PARMA04-14-2015DISCHARGE (KAF)27139868
82WRMO3MALHEUR-WARM SPRINGS DAM04-14-2015INFLOW (KAF)82433
83BERO3MALHEUR-AGENCY VALLEY DAM04-14-2015INFLOW (KAF)183256
84BULO3BULLY CREEK-BULLY CREEK DAM04-14-2015INFLOW (KAF)21160
85VALO3MALHEUR-NEAR VALE04-14-2015DISCHARGE (KAF)274559
86CSDI1NF PAYETTE-CASCADE DAM04-14-2015INFLOW (KAF)24344954
87DEDI1DEADWOOD-NEAR LOWMAN04-14-2015INFLOW (KAF)7312857
88EMMI1PAYETTE-NEAR EMMETT04-14-2015DISCHARGE (KAF)496112044
89WSRI1WEISER-NEAR WEISER04-14-2015DISCHARGE (KAF)10730935
90WEII1SNAKE-AT WEISER04-14-2015DISCHARGE (KAF)2553441058
91BRNI1SNAKE-BROWNLEE DAM04-14-2015INFLOW (KAF)2856474760
92WHBI1SALMON-AT WHITEBIRD04-14-2015DISCHARGE (KAF)3545551964
93TRYO3GRANDE RONDE-TROY04-14-2015DISCHARGE (KAF)357107333
94ANAW1SNAKE-NEAR ANATONE04-14-2015DISCHARGE (KAF)68801220356
95ORFI1CLEARWATER-AT OROFINO04-14-2015DISCHARGE (KAF)3035421372
96DWRI1NF CLEARWATER-DWORSHAK DAM04-14-2015INFLOW (KAF)1432240360
97SPDI1CLEARWATER-AT SPALDING04-14-2015DISCHARGE (KAF)5003629979
98LGDW1SNAKE-LOWER GRANITE DAM04-14-2015INFLOW (KAF)118841852064
99LGSW1SNAKE-LITTLE GOOSE DAM04-14-2015INFLOW (KAF)118731853364
100LMNW1SNAKE-LOWER MONUMENTAL DAM04-14-2015INFLOW (KAF)119111859264
101IHDW1SNAKE-ICE HARBOR DAM04-14-2015INFLOW (KAF)119101846465
102TCHW1WALLA WALLA-NEAR TOUCHET04-14-2015DISCHARGE (KAF)368344
103MCDW1COLUMBIA-MCNARY DAM04-14-2015INFLOW (KAF)401256245664
104GIBO3UMATILLA-NEAR GIBBON04-14-2015DISCHARGE (KAF)215439
105PDTO3UMATILLA-AT PENDLETON04-14-2015DISCHARGE (KAF)3910039
106MYKO3MCKAY CREEK-NEAR PILOT ROCK04-14-2015DISCHARGE (KAF)61444
107UMAO3UMATILLA-NEAR UMATILLA04-14-2015DISCHARGE (KAF)235245
108MONO3NF JOHN DAY-AT MONUMENT04-14-2015DISCHARGE (KAF)9745421
109SERO3JOHN DAY-AT SERVICE CK04-14-2015DISCHARGE (KAF)14463323
110JDAO3COLUMBIA-JOHN DAY DAM04-14-2015INFLOW (KAF)412306422764
111MODO3DESCHUTES-AT MOODY NR BIGGS04-14-2015DISCHARGE (KAF)1080128284
112TDAO3COLUMBIA-THE DALLES DAM04-14-2015INFLOW (KAF)413195755472
113PITW1KLICKITAT-NEAR PITT04-14-2015DISCHARGE (KAF)25342859
114HODO3HOOD-NEAR TUCKER BRIDGE04-14-2015DISCHARGE (KAF)10419155
115UNDW1WHITE SALMON-NEAR UNDERWOOD04-14-2015DISCHARGE (KAF)17629061
116BONO3COLUMBIA-BONNEVILLE DAM04-14-2015INFLOW (KAF)41864MM